OBJECT A, 44310

Orbit data source: Space-Track

You're viewing an Uncataloged Satellite

Recently launched and/or uncataloged satellites may have evolving metadata. Metadata may include but not limited to: Owner, Maufacturer, Bus, Motor, and Mission.

OBJECT A, 44310 is a satellite owned by CETG (CN) in LEO that was launched on Wed, 05 Jun 2019 UTC via a CHANG ZHENG 11 launch vehicle from the Yellow Sea Launch Area, China (YSLA). Unknown objects in Earth's orbit typically refer to objects detected orbiting the Earth but have not yet been identified or cataloged. These objects could be anything from previously untracked satellites, spent rocket stages, debris from satellite collisions, or even natural meteoroids temporarily captured by Earth's gravity.

Loading next visibility...
OBJECT A details
Identifier
44310, 2019-032A
Orbit
LEO
Last TLE update7 hours ago
Origin
Flag of CNCETG (CN / PRC)
ManufacturerDKJ?
MissionOperational Commercial Technology
Bus & MotorTIANDI, Unknown motor
Mass65 kg wet, 65 kg dry
Launch date (UTC)
2019-06-05 (6 years ago)
Launch vehicle
CHANG ZHENG 11
Launch site
Yellow Sea Launch Area, China (YSLA)
Object typeUnknown
Shape & HBRBox, Unknown HBR
Radar Cross Section1.500 m², Medium (>0.1 m² and < 1m²)

Expand to show TLE details & history

TLE from 7 hours ago
0 OBJECT A
1 44310U 19032A   24361.30731154  .00021690  00000-0  12116-2 0  9998
2 44310  44.9779  84.9281 0007007  55.3481 304.8056 15.13203269305293
Epoch: 2024-12-26T07:22Z
Definitive object data (Epoch: 2024-12-26T07:22:31.717Z)
Latitude0.00001°
Longitude-120.99263°
Altitude523.676 km
Speed7.605 km/s
True Right ascension05h 39m 42s
True Declination0° 00' 00"
Sunlit
Object was in full shadow at TLE epoch
Visualization TLE readout
Latitude-41.15526°
Longitude117.80421°
Altitude543.895 km
Speed7.588 km/s
Apparent Right ascension23h 47m 33s
Apparent Declination-45° 51' 42"
Sunlit
Object is in daylight
Visualization observer readout
Local Sidereal Time14:10:09
Azimuth114.775° SE
Elevation-63.448°
Doppler factor1
Orbital elements
Apogee altitude532.881 km
Perigee altitude523.202 km
Semi-major axis6,906.179 km
Eccentricity0.0007007
Inclination44.9779°
RAAN84.9281°
Arg. of periapsis55.3481°
True anomaly304.73964°
Mean anomaly304.8056°
Eccentric anomaly304.77262°
Mean motion3.78169 °/min
BSTAR0.0012116
Orbital period95.2 mins
Loading maneuver chart data...
Loading historical data...
Loading historical data...
Loading historical data...
Loading historical data...
Loading historical data...
Loading historical data...
Loading historical data...

OBJECT A Visibility forecast

Observer location: undefined°, undefined

Span
Click to sort rows by Start time (UTC) header in descending order
Start Az.
Max El. time (UTC)
Max El. Az.
Max El.
End time (UTC)
End Az.
5 mins2024-12-26 15:49:15.621Z267.401° W2024-12-26 15:52:15.621Z210.522° SW22.023°2024-12-26 15:54:15.621Z172.976° S
6 mins2024-12-27 08:56:15.621Z219.864° SW2024-12-27 08:59:15.621Z126.822° SE37.171°2024-12-27 09:02:15.621Z74.994° E
6 mins2024-12-27 10:36:15.621Z278.677° WNW2024-12-27 10:38:15.621Z323.839° NNW36.112°2024-12-27 10:42:15.621Z61.985° ENE
6 mins2024-12-27 12:16:15.621Z301.971° NW2024-12-27 12:19:15.621Z20.568° NNE32.361°2024-12-27 12:22:15.621Z74.713° E
6 mins2024-12-27 13:56:15.621Z293.944° NW2024-12-27 13:59:15.621Z109.386° ESE43.996°2024-12-27 14:02:15.621Z113.955° SE
|